[ hide orbit diagram ]
For accurate long-term ephemerides, please instead use our Horizons system.This orbit viewer was implemented using two-body methods, and hence should not be used for determining accurate long-term trajectories (over several years or decades) or planetary encounter circumstances.
Orbital Elements at Epoch 2459000.5 (2020-May-31.0) TDB
Reference: JPL 17 (heliocentric ecliptic J2000)
Element | Value | Uncertainty (1-sigma) | Units |
e | .1120106143832231 | 4.4019e-08 | |
a | 2.784663977715876 | 2.2335e-08 | au |
q | 2.472752054721091 | 1.3114e-07 | au |
i | 9.145598554424875 | 4.9893e-06 | deg |
node | 123.7832137973097 | 2.4743e-05 | deg |
peri | 311.171699199874 | 3.3073e-05 | deg |
M | 252.5386558897859 | 2.4169e-05 | deg |
tp | 2459507.149233232359 (2021-Oct-19.64923323) | 0.00011615 | TDB |
period | 1697.296134474023 4.65 | 2.042e-05 5.591e-08 | d yr |
n | .212102056139756 | 2.5518e-09 | deg/d |
Q | 3.096575900710662 | 2.4836e-08 | au |
|
| | Orbit Determination Parameters
Additional Information
|
[ show covariance matrix ]
Physical Parameter Table
Parameter |
Symbol |
Value |
Units |
Sigma |
Reference |
Notes |
absolute magnitude |
H |
15.7 |
|
n/a |
MPO436671 |
|
|
136363 (2004 DS30) Discovered 2004-Feb-17 by LINEAR at Socorro |
Reference: 20060907/Numbers.arc | Last Updated: 2006-09-10 |
|
[ show close-approach data ]
|